Helicity
100 111 151 145 139 160 196 207 201 149 162 169 153 45 39 48 44 7 -13 53 7 -24 30 36 41 83 100 85 98 74 47 61 132 117 82 90 121 106 67 173 85 6 44 -11 94
137 122 104 137 128 135 121 177 206 172 149 148 165 146 34 39 -0 10 52 42 18 17 33 32 48 85 121 76 132 127 39 98 135 155 99 122 160 139 135 143 150 83 69 136 166
124 136 136 118 116 134 120 137 166 189 148 147 160 161 60 42 -14 -27 49 27 -13 -3 48 48 91 102 96 106 134 108 1 105 169 246 179 130 138 125 126 97 61 58 79 149 163
108 119 140 127 113 115 133 120 115 148 167 133 155 201 148 66 74 104 173 178 59 80 82 70 85 109 121 103 101 89 13 85 82 183 247 115 143 122 118 95 108 56 112 175 173
95 131 126 104 109 109 110 121 97 102 151 110 140 216 155 142 96 26 102 90 123 108 69 78 81 84 88 95 125 71 8 56 98 136 147 136 90 67 67 78 92 76 133 145 174
65 101 113 105 113 111 102 102 98 83 104 119 168 237 103 101 61 40 34 8 23 86 72 73 53 63 96 73 128 98 31 98 111 120 130 111 94 69 61 83 91 99 104 140 190
57 79 103 108 96 103 112 103 81 81 84 95 174 192 151 94 55 114 137 127 78 70 80 65 36 111 80 123 67 96 109 109 164 150 104 114 95 67 41 78 72 74 97 127 146
62 57 102 111 113 91 83 90 88 73 71 87 198 188 78 105 19 45 89 164 139 99 61 46 85 52 84 145 184 126 129 147 109 176 143 150 30 53 51 71 43 28 101 126 111
63 69 79 110 130 120 75 64 43 59 84 77 148 180 35 -45 55 60 39 75 64 95 70 61 117 100 97 131 167 189 184 148 117 97 134 174 69 35 82 103 62 56 72 152 109
52 60 62 59 100 112 75 47 33 11 19 55 105 272 146 99 141 49 39 76 95 119 118 114 181 191 174 214 207 208 139 118 109 110 141 158 104 105 83 72 69 83 86 93 104
38 52 52 52 45 83 62 -12 6 43 40 145 161 241 309 121 140 82 118 109 121 162 170 197 249 227 151 192 139 110 128 113 99 118 145 147 122 94 95 114 81 68 60 56 65
41 52 41 43 32 69 35 10 -36 19 11 104 61 136 48 91 285 100 134 207 222 193 268 246 174 134 154 168 145 141 107 115 112 138 133 186 127 139 131 105 103 70 82 95 82
34 38 37 39 27 52 68 34 22 -6 -12 18 94 25 88 68 195 194 158 208 252 263 276 294 227 157 141 157 126 114 137 93 93 127 137 147 156 123 100 94 46 65 75 61 70
25 33 38 48 59 30 102 9 45 12 -20 -52 69 105 127 144 200 63 260 184 280 214 286 276 185 138 164 117 141 108 146 110 114 126 128 115 107 141 108 91 89 41 67 63 82
23 26 40 60 89 61 73 52 51 24 16 -6 53 119 157 256 319 60 115 167 174 340 379 278 232 249 129 135 142 137 140 103 108 127 160 166 144 67 109 110 45 21 68 68 73
27 25 38 71 104 93 39 49 50 128 102 125 45 67 214 205 234 217 79 131 132 173 184 214 218 230 222 109 148 204 154 168 189 173 164 144 151 23 123 106 97 112 91 83 84
43 36 42 92 118 91 46 61 172 205 178 87 126 135 58 124 178 255 191 147 214 177 162 142 156 190 221 167 161 179 243 297 295 310 214 89 147 138 113 59 63 84 76 106 113
51 42 69 122 147 113 99 176 206 163 99 66 100 177 117 61 124 130 155 223 257 220 153 258 236 140 190 157 251 170 248 427 400 376 250 196 123 99 -13 29 101 68 43 66 79
82 80 84 167 109 180 218 279 279 143 65 91 -81 108 126 -57 115 138 141 117 193 285 259 197 200 170 285 269 213 309 195 232 335 286 237 218 201 190 101 63 59 82 87 62 74
111 68 139 43 106 201 227 247 174 66 30 16 -40 13 195 103 25 141 170 149 180 209 256 233 210 252 150 281 163 227 305 329 308 234 241 213 173 179 139 109 100 128 91 86 78
99 90 33 50 79 200 190 115 39 13 3 -15 -57 -191 -96 124 38 22 247 240 214 180 254 281 218 229 244 292 309 417 327 393 314 282 221 188 143 101 124 101 127 93 109 124 63
138 155 46 47 25 83 120 123 45 10 30 6 -53 -81 -135 -169 -297 27 -25 280 164 244 176 180 269 216 277 264 229 365 443 506 372 251 281 209 114 139 57 44 103 95 113 107 86
173 129 31 79 93 58 49 49 50 42 28 -0 -11 -49 -71 -169 -270 -166 71 26 338 80 206 254 362 266 338 353 298 260 387 280 343 360 240 247 158 176 125 165 105 181 152 125 72
188 186 37 20 46 44 59 73 64 22 42 -3 -1 -36 -52 -130 -76 -229 -102 -10 361 198 245 239 433 299 405 338 431 331 227 280 318 390 231 203 173 236 138 116 135 123 128 111 72
193 206 97 97 61 48 21 -14 48 104 29 7 -0 -29 -78 -347 -192 -211 -213 -126 79 118 164 162 282 236 190 310 219 229 260 302 319 170 313 124 278 237 189 121 62 95 149 155 94
314 204 113 105 12 -20 29 16 16 33 33 47 7 3 -2 -82 -104 -345 -269 -223 5 -113 264 365 259 283 253 397 273 250 214 272 283 132 171 221 181 209 168 160 163 134 163 145 114
132 147 157 131 65 45 33 57 66 61 29 9 9 39 16 36 -28 -45 -39 -172 -224 -168 185 402 265 248 246 292 300 322 196 234 141 126 146 163 179 193 155 104 102 161 170 149 154
Wind_Speed
70 73 75 80 80 80 83 79 78 76 77 77 76 73 71 71 72 65 71 54 41 39 33 38 34 34 32 36 35 31 38 43 41 43 42 49 26 38 41 16 38 48 32 44 42
72 73 77 79 81 81 80 83 81 77 77 77 77 76 70 69 73 80 75 63 53 46 43 43 42 39 40 39 40 40 42 40 35 39 39 29 28 19 18 20 30 41 37 17 36
74 74 78 79 80 82 81 81 84 82 78 77 78 76 67 62 74 69 49 51 50 50 40 36 39 41 49 45 46 45 51 46 41 40 39 38 30 29 10 11 11 21 15 24 31
73 75 81 81 80 82 80 80 82 85 84 80 78 78 75 54 78 44 32 30 21 26 38 44 44 49 51 57 53 58 61 60 65 54 51 42 43 40 34 34 28 9 15 22 27
73 76 82 81 81 82 81 82 81 81 84 80 77 77 67 70 78 52 46 38 37 34 43 46 53 52 60 56 60 66 69 67 74 66 58 47 48 43 46 34 35 13 5 18 22
68 74 82 83 81 82 83 84 83 80 80 81 78 76 77 105 69 75 81 66 53 47 46 46 51 51 55 66 62 53 68 80 71 70 58 54 53 48 47 48 43 28 9 15 19
70 73 81 83 83 84 86 85 82 80 82 80 79 76 92 108 59 54 57 59 58 56 63 51 51 51 55 61 67 72 78 74 69 62 61 55 70 65 58 59 63 44 27 18 21
70 70 77 81 82 83 86 87 87 86 84 80 78 79 105 79 85 99 87 83 70 58 62 57 54 61 61 57 56 61 65 82 67 57 56 50 88 69 62 64 79 80 62 29 25
66 72 76 80 80 84 87 90 92 94 88 81 79 74 104 63 89 75 72 72 68 63 61 57 50 70 65 75 79 70 78 75 73 59 61 58 75 71 69 60 77 73 75 51 36
67 71 76 80 81 84 90 94 94 90 74 64 66 75 92 88 74 68 81 82 71 62 59 56 64 78 78 80 93 82 80 76 76 63 70 76 86 68 54 49 53 53 56 52 50
62 69 76 78 81 81 86 73 66 60 57 68 63 86 61 68 73 80 65 67 67 69 80 63 81 99 88 79 77 75 79 81 71 63 64 74 79 75 65 64 66 65 61 60 55
60 67 72 76 77 76 58 63 64 64 87 82 96 97 104 72 66 73 50 66 72 93 72 77 109 89 76 74 77 80 86 87 76 72 70 78 84 76 70 69 67 67 67 62 64
59 62 69 72 78 51 61 58 51 64 81 90 86 99 91 81 84 73 58 64 79 84 83 94 89 75 78 78 85 88 93 87 85 69 66 67 84 81 76 74 78 78 74 73 65
54 56 62 70 55 58 61 51 66 52 76 80 66 84 85 74 90 79 59 63 71 93 83 92 87 76 83 91 81 96 76 78 81 81 92 67 98 81 77 81 76 80 71 69 64
52 53 58 58 56 51 53 68 65 48 80 57 60 49 65 88 78 79 64 62 79 78 79 103 86 86 89 96 75 93 62 71 77 85 84 82 87 90 77 86 88 82 77 71 64
51 50 52 58 47 45 53 60 52 59 77 59 54 58 62 85 93 78 69 64 64 80 76 95 66 71 85 74 75 62 62 65 68 75 107 91 92 99 87 84 84 80 72 62 54
49 48 46 48 45 37 56 50 57 65 54 61 55 55 71 85 97 96 92 103 89 86 94 93 101 78 70 78 68 70 67 77 90 94 105 69 86 106 80 75 70 71 59 39 30
50 50 47 42 34 30 35 43 61 55 64 67 65 75 69 76 90 107 100 98 100 92 83 94 102 103 80 86 80 79 75 80 94 94 93 72 94 82 64 66 59 51 33 26 28
54 51 51 45 23 14 21 38 59 60 59 62 67 70 81 66 74 88 116 123 94 96 105 102 110 72 77 69 68 77 95 72 66 66 75 78 84 78 63 52 49 43 34 30 29
49 53 40 35 23 13 24 38 58 65 73 77 75 62 60 62 59 67 95 112 103 97 90 79 108 87 81 68 73 75 69 77 82 95 97 85 87 77 55 50 39 35 31 29 34
42 47 35 30 27 12 22 40 50 71 77 70 82 85 79 72 77 76 61 85 99 95 94 95 90 90 67 95 83 80 82 80 80 80 91 95 92 61 62 47 37 31 30 29 28
35 42 22 31 34 25 27 39 45 60 59 70 72 86 91 79 75 80 81 62 73 99 109 93 75 98 94 74 80 77 80 74 84 95 90 81 94 46 42 47 42 32 29 26 25
34 35 35 21 26 27 29 33 44 58 66 68 72 70 73 77 78 71 68 62 74 93 108 104 89 97 92 87 90 86 79 80 79 70 92 91 92 58 53 43 35 32 28 27 25
29 38 32 22 26 27 36 46 49 46 61 59 68 73 88 99 94 82 84 72 59 64 90 105 94 101 103 96 82 94 88 79 79 90 90 93 79 56 50 49 36 28 27 26 24
21 29 26 27 26 34 46 42 51 50 47 53 59 58 61 83 96 100 88 78 68 65 64 89 116 110 106 80 81 92 85 78 80 81 83 87 77 58 42 35 30 32 34 30 26
24 25 26 31 32 35 48 43 50 56 61 57 63 63 68 75 78 91 81 79 76 66 60 68 90 98 117 92 76 90 82 77 80 86 86 81 75 59 60 49 49 45 34 31 28
18 25 30 32 34 32 44 46 48 57 62 56 64 73 75 78 79 84 87 89 78 75 68 57 70 100 113 103 81 89 81 75 75 73 66 75 62 55 57 57 61 46 36 31 32
Wind_Direction
332 326 320 311 304 302 296 297 296 294 291 291 292 287 289 291 290 289 277 281 292 292 294 289 281 271 275 264 259 271 262 253 256 260 258 229 258 250 230 270 237 202 127 212 132
333 329 322 315 306 303 300 292 293 293 290 288 288 291 286 290 286 276 275 278 279 279 281 272 267 264 263 260 258 257 258 257 270 274 267 264 270 291 284 278 270 241 253 84 127
336 330 322 316 310 303 301 295 289 290 289 287 284 284 286 290 281 278 287 278 274 268 270 274 270 263 257 257 254 258 255 256 263 270 276 268 273 277 300 301 125 138 111 124 137
336 333 319 316 314 307 303 300 293 286 286 285 284 283 286 281 264 283 292 296 292 274 269 264 261 257 257 252 253 256 256 256 254 268 269 272 271 272 278 283 289 137 137 141 149
337 330 320 317 316 309 305 302 295 290 285 284 281 279 280 264 258 272 277 287 293 277 262 258 253 254 254 257 253 254 256 258 256 264 268 274 271 274 270 279 285 305 158 160 166
340 334 319 316 317 313 307 301 296 290 287 283 279 279 268 257 265 267 263 272 274 267 267 258 259 256 263 256 253 263 259 256 261 260 268 269 271 272 274 274 278 288 229 196 190
341 335 323 317 317 312 305 301 296 291 285 284 277 275 261 255 267 271 266 266 273 264 260 260 256 256 258 261 259 257 258 261 261 263 266 268 266 265 271 271 269 279 278 240 217
342 337 329 322 320 314 307 301 294 288 285 281 277 271 261 263 261 257 261 262 262 264 261 264 257 258 256 262 265 257 258 255 260 261 266 263 259 266 272 271 265 265 274 262 241
341 338 330 325 323 317 309 302 292 283 280 279 272 263 260 263 254 257 257 259 261 262 262 262 258 250 254 251 253 255 253 255 260 263 265 261 267 269 272 273 269 269 270 273 268
340 338 331 328 324 318 311 302 291 284 282 277 267 261 257 254 256 257 254 253 255 257 256 253 250 244 245 244 245 250 254 258 259 266 263 261 262 270 274 277 278 277 278 279 277
340 337 332 329 328 321 315 314 304 289 283 266 261 252 263 262 256 252 253 245 247 249 244 245 243 239 241 245 251 255 255 257 263 263 267 264 263 265 267 272 275 276 277 278 281
341 339 335 332 330 324 327 316 301 296 277 271 262 257 253 262 261 250 243 236 236 239 240 243 242 244 248 247 249 251 253 255 262 264 269 268 263 265 268 269 274 277 278 281 280
340 339 337 333 331 337 324 319 321 311 278 273 263 253 249 252 251 249 233 236 237 237 235 238 248 245 245 246 246 249 250 254 257 267 271 272 266 264 267 271 273 275 278 281 281
340 341 339 336 342 333 319 325 317 320 279 267 267 256 245 245 249 243 245 235 243 237 237 244 243 242 243 245 245 249 252 255 259 261 261 266 264 266 267 270 274 276 276 279 283
339 341 339 338 333 334 324 315 315 311 272 270 263 272 244 235 242 240 235 237 237 239 234 240 238 239 242 243 245 251 255 256 258 260 264 262 267 266 268 269 272 276 278 278 281
340 340 339 333 332 329 326 317 312 283 267 271 268 258 245 235 235 241 234 239 244 243 243 242 249 240 245 248 245 253 254 258 261 260 258 260 263 266 265 272 276 280 279 279 285
338 338 334 329 322 334 326 316 286 271 283 267 268 266 253 242 237 236 236 232 234 234 237 241 239 242 245 244 245 241 243 250 252 252 256 263 264 264 272 275 277 281 282 275 277
338 336 330 319 313 321 321 299 276 282 267 266 279 267 259 244 241 235 237 235 231 236 239 237 238 235 237 238 239 235 235 245 251 255 259 264 265 273 278 275 273 281 281 278 279
341 340 338 339 341 345 311 282 278 273 275 273 274 263 253 259 251 236 236 238 234 232 236 239 242 245 242 241 232 240 237 242 259 266 262 261 268 275 278 277 268 274 275 277 282
345 344 346 357 21 34 321 286 279 272 269 264 259 257 254 260 261 245 235 235 235 230 236 246 244 245 235 243 238 239 235 240 247 252 257 263 263 263 271 273 269 265 266 277 286
351 350 358 20 23 356 310 307 285 267 266 266 255 251 254 258 259 263 259 240 227 231 231 236 244 241 242 231 233 234 235 243 246 252 255 260 263 270 268 270 264 263 266 277 283
353 346 16 356 344 345 314 307 300 279 277 267 259 251 249 256 255 254 247 247 248 230 227 230 246 239 235 230 238 238 236 236 242 247 254 262 261 282 279 269 264 260 266 273 283
347 343 344 357 337 333 328 321 305 288 275 267 259 255 254 253 248 246 252 270 260 239 231 227 238 238 239 239 237 236 235 233 241 251 249 253 260 266 273 276 274 256 257 270 279
349 345 348 344 335 331 319 306 303 299 279 274 261 260 251 243 243 243 246 257 268 266 247 225 234 235 234 230 225 226 230 232 234 245 250 252 262 267 267 268 268 252 255 264 274
341 339 346 340 332 328 313 318 303 296 286 283 267 264 263 248 246 246 257 261 257 268 253 233 230 233 236 242 239 234 231 233 234 239 247 255 254 252 260 259 256 258 263 265 275
324 335 340 330 318 314 305 304 300 292 281 276 268 267 262 253 250 249 257 257 254 259 262 246 234 232 234 239 246 233 232 232 236 240 244 252 256 255 259 267 268 266 260 263 271
315 324 325 325 321 313 300 297 298 293 282 277 271 269 263 261 259 256 256 254 248 252 256 255 239 228 232 231 243 239 228 221 218 235 230 243 246 262 263 262 262 260 259 259 265